Location: College Rock
(37.2713°N, 119.1740°W)
Time: 04:22:53
(UTC+00:00)

Lacrosse 5 rocket - Pass Details

Date: 29 October 2020
Orbit: 458 x 638 km, 57.0° (Epoch: 23 November)

Event Time Altitude Azimuth Distance (km) Brightness Sun altitude
Exits shadow 12:18:34 10° 9° (N) 1,630 3.8 -24.4°
Drops below altitude 10° 12:18:40 10° 10° (N) 1,657 3.9 -24.4°
Sets 12:21:23 0° 30° (NNE) 2,570 5.1 -23.9°
